N423CL KMRH-KFFA

Flight info

Callsign N423CL
Flight time 0h 43m
Altitude FL035
Route KHSE
Aircraft B36T/L-VGD/C

Departure

Time 2026-05-07 21:29
Airport Michael J. Smith Field (KMRH)

Arrival

Time 2026-05-07 22:12
Airport First Flight Airport (KFFA)
Time Latitude Longitude Altitude Speed Heading
2026-05-07 21:21 34.73464 -76.65473 -12 ft 0 kts 268°
2026-05-07 21:26 34.73464 -76.65479 -12 ft 4 kts 276°
2026-05-07 21:26 34.73516 -76.65524 -12 ft 15 kts 353°
2026-05-07 21:26 34.73628 -76.65526 -12 ft 12 kts 356°
2026-05-07 21:27 34.73673 -76.65530 -12 ft 2 kts 320°
2026-05-07 21:27 34.73669 -76.65568 -12 ft 9 kts 249°
2026-05-07 21:27 34.73662 -76.65662 -12 ft 8 kts 251°
2026-05-07 21:27 34.73655 -76.65671 -12 ft 0 kts 201°
2026-05-07 21:28 34.73494 -76.65760 -12 ft 60 kts 204°
2026-05-07 21:28 34.73015 -76.66039 94 ft 80 kts 207°
2026-05-07 21:28 34.72498 -76.66310 429 ft 80 kts 199°
2026-05-07 21:29 34.71976 -76.66537 633 ft 82 kts 200°
2026-05-07 21:29 34.71432 -76.66571 865 ft 90 kts 175°
2026-05-07 21:29 34.70850 -76.66043 921 ft 124 kts 131°
2026-05-07 21:29 34.70644 -76.64942 1021 ft 144 kts 85°
2026-05-07 21:30 34.71068 -76.63915 1376 ft 131 kts 39°
2026-05-07 21:30 34.71753 -76.63348 1722 ft 113 kts 20°
2026-05-07 21:30 34.72377 -76.62897 2059 ft 98 kts 15°
2026-05-07 21:30 34.72958 -76.62488 2252 ft 103 kts 10°
2026-05-07 21:31 34.73640 -76.62043 2363 ft 119 kts 13°
2026-05-07 21:31 34.74407 -76.61535 2464 ft 132 kts 14°
2026-05-07 21:31 34.75243 -76.60948 2566 ft 148 kts 23°
2026-05-07 21:31 34.76028 -76.60065 2723 ft 158 kts 39°
2026-05-07 21:32 34.76430 -76.59450 2813 ft 162 kts 45°
2026-05-07 21:32 34.77072 -76.58311 2988 ft 164 kts 49°
2026-05-07 21:32 34.77676 -76.57136 3181 ft 164 kts 51°
2026-05-07 21:32 34.78265 -76.55953 3379 ft 164 kts 52°
2026-05-07 21:33 34.78844 -76.54762 3582 ft 164 kts 52°
2026-05-07 21:33 34.79451 -76.53519 3586 ft 179 kts 52°
2026-05-07 21:33 34.80109 -76.52174 3578 ft 189 kts 53°
2026-05-07 21:33 34.80780 -76.50777 3571 ft 193 kts 53°
2026-05-07 21:34 34.81460 -76.49368 3565 ft 195 kts 53°
2026-05-07 21:34 34.82146 -76.47948 3560 ft 195 kts 54°
2026-05-07 21:34 34.82828 -76.46530 3566 ft 195 kts 53°
2026-05-07 21:34 34.83515 -76.45113 3558 ft 195 kts 53°
2026-05-07 21:35 34.84200 -76.43696 3561 ft 195 kts 53°
2026-05-07 21:35 34.84891 -76.42263 3563 ft 196 kts 53°
2026-05-07 21:35 34.85578 -76.40835 3555 ft 196 kts 53°
2026-05-07 21:35 34.86267 -76.39410 3551 ft 196 kts 53°
2026-05-07 21:36 34.86303 -76.39337 3550 ft 196 kts 54°
2026-05-07 21:36 34.86357 -76.39224 3550 ft 196 kts 54°
2026-05-07 21:36 34.87046 -76.37799 3556 ft 196 kts 54°
2026-05-07 21:37 34.87739 -76.36353 3557 ft 196 kts 54°
2026-05-07 21:37 34.88429 -76.34924 3556 ft 196 kts 55°
2026-05-07 21:37 34.89114 -76.33498 3549 ft 196 kts 54°
2026-05-07 21:37 34.89802 -76.32071 3550 ft 195 kts 54°
2026-05-07 21:38 34.90486 -76.30645 3550 ft 195 kts 55°
2026-05-07 21:38 34.91170 -76.29229 3549 ft 195 kts 55°
2026-05-07 21:38 34.91853 -76.27806 3550 ft 195 kts 54°
2026-05-07 21:38 34.92539 -76.26377 3549 ft 195 kts 55°
2026-05-07 21:39 34.93220 -76.24962 3550 ft 194 kts 55°
2026-05-07 21:39 34.93897 -76.23547 3551 ft 194 kts 54°
2026-05-07 21:39 34.94577 -76.22131 3550 ft 194 kts 55°
2026-05-07 21:39 34.95256 -76.20717 3550 ft 194 kts 55°
2026-05-07 21:40 34.95934 -76.19304 3550 ft 194 kts 55°
2026-05-07 21:40 34.96611 -76.17886 3552 ft 194 kts 54°
2026-05-07 21:40 34.97297 -76.16463 3552 ft 194 kts 55°
2026-05-07 21:40 34.97973 -76.15045 3550 ft 194 kts 54°
2026-05-07 21:41 34.98652 -76.13630 3552 ft 194 kts 54°
2026-05-07 21:41 34.99329 -76.12213 3551 ft 194 kts 54°
2026-05-07 21:41 35.00012 -76.10793 3551 ft 194 kts 55°
2026-05-07 21:41 35.00690 -76.09372 3551 ft 194 kts 54°
2026-05-07 21:42 35.01370 -76.07952 3550 ft 194 kts 54°
2026-05-07 21:42 35.02055 -76.06517 3551 ft 195 kts 54°
2026-05-07 21:42 35.02733 -76.05096 3552 ft 194 kts 55°
2026-05-07 21:42 35.03414 -76.03674 3553 ft 194 kts 54°
2026-05-07 21:43 35.04092 -76.02251 3553 ft 194 kts 54°
2026-05-07 21:43 35.04769 -76.00833 3552 ft 194 kts 54°
2026-05-07 21:43 35.05450 -75.99408 3550 ft 195 kts 55°
2026-05-07 21:43 35.06125 -75.97983 3554 ft 194 kts 54°
2026-05-07 21:44 35.06809 -75.96554 3553 ft 194 kts 55°
2026-05-07 21:44 35.07487 -75.95128 3554 ft 194 kts 55°
2026-05-07 21:44 35.08163 -75.93702 3552 ft 195 kts 54°
2026-05-07 21:44 35.08843 -75.92280 3552 ft 195 kts 54°
2026-05-07 21:45 35.09521 -75.90856 3556 ft 195 kts 55°
2026-05-07 21:45 35.10199 -75.89426 3554 ft 195 kts 55°
2026-05-07 21:45 35.10880 -75.87993 3551 ft 195 kts 54°
2026-05-07 21:45 35.11561 -75.86557 3551 ft 195 kts 54°
2026-05-07 21:46 35.12240 -75.85129 3553 ft 194 kts 55°
2026-05-07 21:46 35.12917 -75.83700 3552 ft 195 kts 54°
2026-05-07 21:46 35.13595 -75.82273 3553 ft 195 kts 54°
2026-05-07 21:46 35.14272 -75.80847 3551 ft 195 kts 55°
2026-05-07 21:47 35.14947 -75.79422 3552 ft 194 kts 54°
2026-05-07 21:47 35.15621 -75.77998 3552 ft 194 kts 54°
2026-05-07 21:47 35.16300 -75.76563 3552 ft 194 kts 54°
2026-05-07 21:47 35.16978 -75.75141 3551 ft 194 kts 55°
2026-05-07 21:48 35.17652 -75.73711 3551 ft 195 kts 54°
2026-05-07 21:48 35.18326 -75.72286 3554 ft 194 kts 55°
2026-05-07 21:48 35.19004 -75.70853 3552 ft 195 kts 55°
2026-05-07 21:48 35.19678 -75.69424 3554 ft 195 kts 54°
2026-05-07 21:49 35.20352 -75.67996 3554 ft 195 kts 54°
2026-05-07 21:49 35.21035 -75.66553 3552 ft 195 kts 55°
2026-05-07 21:49 35.21711 -75.65122 3551 ft 195 kts 54°
2026-05-07 21:49 35.22387 -75.63688 3554 ft 195 kts 55°
2026-05-07 21:50 35.23167 -75.62368 3548 ft 187 kts 29°
2026-05-07 21:50 35.24293 -75.61877 3562 ft 163 kts 347°
2026-05-07 21:50 35.25414 -75.61928 3559 ft 161 kts 343°
2026-05-07 21:50 35.26532 -75.62001 3553 ft 162 kts 343°
2026-05-07 21:51 35.27661 -75.62079 3554 ft 161 kts 343°
2026-05-07 21:51 35.28785 -75.62152 3555 ft 162 kts 342°
2026-05-07 21:51 35.29908 -75.62229 3552 ft 162 kts 342°
2026-05-07 21:51 35.31034 -75.62308 3555 ft 162 kts 343°
2026-05-07 21:52 35.32156 -75.62383 3552 ft 162 kts 343°
2026-05-07 21:52 35.33280 -75.62459 3554 ft 162 kts 343°
2026-05-07 21:52 35.34404 -75.62535 3554 ft 162 kts 343°
2026-05-07 21:52 35.35533 -75.62612 3555 ft 162 kts 343°
2026-05-07 21:53 35.36655 -75.62688 3553 ft 161 kts 343°
2026-05-07 21:53 35.37779 -75.62767 3555 ft 162 kts 343°
2026-05-07 21:53 35.38903 -75.62840 3554 ft 162 kts 342°
2026-05-07 21:53 35.40027 -75.62917 3553 ft 162 kts 342°
2026-05-07 21:54 35.41151 -75.62994 3554 ft 162 kts 342°
2026-05-07 21:54 35.42277 -75.63073 3555 ft 162 kts 342°
2026-05-07 21:54 35.43416 -75.63150 3557 ft 162 kts 343°
2026-05-07 21:54 35.44542 -75.63226 3555 ft 162 kts 342°
2026-05-07 21:55 35.45667 -75.63304 3553 ft 162 kts 342°
2026-05-07 21:55 35.46794 -75.63378 3553 ft 162 kts 343°
2026-05-07 21:55 35.47918 -75.63456 3553 ft 162 kts 342°
2026-05-07 21:55 35.49042 -75.63533 3555 ft 162 kts 342°
2026-05-07 21:56 35.50163 -75.63612 3552 ft 162 kts 343°
2026-05-07 21:56 35.51300 -75.63689 3553 ft 162 kts 343°
2026-05-07 21:56 35.52429 -75.63766 3555 ft 162 kts 343°
2026-05-07 21:56 35.53556 -75.63842 3555 ft 162 kts 342°
2026-05-07 21:57 35.54681 -75.63919 3554 ft 162 kts 343°
2026-05-07 21:57 35.55806 -75.63995 3554 ft 162 kts 342°
2026-05-07 21:57 35.56931 -75.64073 3554 ft 162 kts 343°
2026-05-07 21:57 35.58056 -75.64150 3552 ft 162 kts 343°
2026-05-07 21:58 35.59189 -75.64229 3553 ft 162 kts 342°
2026-05-07 21:58 35.60310 -75.64306 3554 ft 162 kts 343°
2026-05-07 21:58 35.61435 -75.64383 3555 ft 162 kts 343°
2026-05-07 21:58 35.62560 -75.64457 3554 ft 162 kts 342°
2026-05-07 21:59 35.63684 -75.64536 3554 ft 162 kts 343°
2026-05-07 21:59 35.64807 -75.64611 3554 ft 162 kts 342°
2026-05-07 21:59 35.65934 -75.64690 3554 ft 162 kts 343°
2026-05-07 21:59 35.67067 -75.64769 3555 ft 162 kts 342°
2026-05-07 22:00 35.68191 -75.64846 3554 ft 162 kts 343°
2026-05-07 22:00 35.69314 -75.64921 3555 ft 162 kts 343°
2026-05-07 22:00 35.70438 -75.64999 3554 ft 162 kts 343°
2026-05-07 22:00 35.71556 -75.65074 3550 ft 159 kts 342°
2026-05-07 22:01 35.72629 -75.65145 3549 ft 150 kts 342°
2026-05-07 22:01 35.73642 -75.65211 3549 ft 142 kts 341°
2026-05-07 22:01 35.74614 -75.65280 3549 ft 137 kts 341°
2026-05-07 22:01 35.75545 -75.65344 3549 ft 132 kts 340°
2026-05-07 22:02 35.76429 -75.65401 3637 ft 122 kts 339°
2026-05-07 22:02 35.77238 -75.65453 3751 ft 112 kts 337°
2026-05-07 22:02 35.78024 -75.65517 3691 ft 119 kts 338°
2026-05-07 22:02 35.78879 -75.65586 3584 ft 127 kts 339°
2026-05-07 22:03 35.79772 -75.65647 3474 ft 130 kts 340°
2026-05-07 22:03 35.80692 -75.65709 3357 ft 133 kts 340°
2026-05-07 22:03 35.81620 -75.65771 3244 ft 135 kts 340°
2026-05-07 22:03 35.82559 -75.65834 3129 ft 136 kts 340°
2026-05-07 22:04 35.83505 -75.65901 3012 ft 137 kts 341°
2026-05-07 22:04 35.84460 -75.65966 2891 ft 138 kts 341°
2026-05-07 22:04 35.85427 -75.66035 2773 ft 140 kts 342°
2026-05-07 22:04 35.86396 -75.66101 2662 ft 140 kts 342°
2026-05-07 22:05 35.87382 -75.66170 2538 ft 142 kts 342°
2026-05-07 22:05 35.88370 -75.66239 2397 ft 144 kts 343°
2026-05-07 22:05 35.89375 -75.66306 2258 ft 146 kts 343°
2026-05-07 22:05 35.90393 -75.66376 2112 ft 148 kts 344°
2026-05-07 22:06 35.91422 -75.66445 1968 ft 150 kts 346°
2026-05-07 22:06 35.92475 -75.66425 1823 ft 150 kts 346°
2026-05-07 22:06 35.93522 -75.66478 1678 ft 151 kts 346°
2026-05-07 22:06 35.94579 -75.66546 1531 ft 152 kts 345°
2026-05-07 22:07 35.95633 -75.66625 1387 ft 152 kts 346°
2026-05-07 22:07 35.96701 -75.66355 1223 ft 165 kts 21°
2026-05-07 22:07 35.97718 -75.65706 1084 ft 165 kts 21°
2026-05-07 22:07 35.98718 -75.65075 1047 ft 157 kts 21°
2026-05-07 22:08 35.99661 -75.64469 1042 ft 149 kts 21°
2026-05-07 22:08 36.00563 -75.63891 1066 ft 142 kts 21°
2026-05-07 22:08 36.01413 -75.63327 1044 ft 130 kts 21°
2026-05-07 22:08 36.02140 -75.62813 1029 ft 113 kts 21°
2026-05-07 22:09 36.02858 -75.62348 962 ft 117 kts
2026-05-07 22:09 36.03594 -75.62485 898 ft 100 kts 313°
2026-05-07 22:09 36.04029 -75.63096 762 ft 96 kts 290°
2026-05-07 22:09 36.04319 -75.63772 755 ft 87 kts 279°
2026-05-07 22:10 36.04469 -75.64480 717 ft 82 kts 270°
2026-05-07 22:10 36.04335 -75.65160 595 ft 86 kts 244°
2026-05-07 22:10 36.04104 -75.65846 473 ft 83 kts 243°
2026-05-07 22:10 36.03774 -75.66380 381 ft 78 kts 220°
2026-05-07 22:11 36.03307 -75.66643 251 ft 79 kts 199°
2026-05-07 22:11 36.02805 -75.66812 112 ft 69 kts 200°
2026-05-07 22:11 36.02364 -75.66965 24 ft 66 kts 194°
2026-05-07 22:11 36.01949 -75.67091 -12 ft 54 kts 197°
2026-05-07 22:12 36.01639 -75.67196 -11 ft 39 kts 197°
2026-05-07 22:12 36.01481 -75.67236 -11 ft 9 kts 160°
2026-05-07 22:12 36.01459 -75.67175 -10 ft 7 kts 115°
2026-05-07 22:12 36.01437 -75.67156 -10 ft 0 kts 194°